FW7705 Weather Reports


Display with metric or nautical units.
time (UTC)temp
F
wind
direction
speed
MPH
gust
MPH
rain 1hr
in
rain 24hr
in
rain mn
in
humidity
%
barometer
mb
20260510065035 46 128 0.0 0.0 0.00 0.09 0.09 99 1008.3
20260510064531 46 128 0.0 0.0 0.00 0.09 0.09 99 1008.3
20260510064028 46 128 0.0 0.0 0.00 0.09 0.09 98 1008.5
20260510063525 47 128 0.0 0.0 0.00 0.09 0.09 98 1008.2
20260510063022 47 122 0.0 0.0 0.00 0.09 0.09 99 1008.5
20260510062518 48 159 0.0 0.0 0.00 0.09 0.09 99 1008.4
20260510062013 48 144 0.0 0.0 0.00 0.09 0.09 99 1008.4
20260510061510 48 133 0.0 0.0 0.00 0.09 0.09 98 1008.6
20260510061007 48 145 1.0 1.0 0.00 0.09 0.09 98 1008.8
20260510060504 48 144 0.0 0.0 0.00 0.09 0.09 98 1008.5
20260510055959 48 144 0.0 0.0 0.00 0.09 0.09 98 1008.5
20260510055455 48 164 0.0 1.0 0.00 0.09 0.09 98 1008.6
20260510054954 48 137 2.0 2.0 0.00 0.09 0.09 98 1008.8
20260510054449 48 137 2.0 2.0 0.00 0.09 0.09 98 1008.8
20260510053944 48 183 1.0 1.0 0.00 0.09 0.09 97 1009.0
20260510053440 49 183 0.0 0.0 0.00 0.09 0.09 97 1008.9
20260510052936 49 147 1.0 1.0 0.00 0.09 0.09 97 1009.0
20260510052432 49 159 2.0 3.0 0.00 0.09 0.09 97 1008.9
20260510051928 49 142 1.0 1.0 0.00 0.09 0.09 97 1008.8
20260510051425 49 136 2.0 2.0 0.00 0.09 0.09 97 1008.8
20260510050921 49 146 3.0 4.0 0.00 0.09 0.09 97 1008.9
20260510050418 49 121 1.0 1.0 0.00 0.09 0.09 98 1009.4
20260510045915 49 167 2.0 3.0 0.00 0.09 0.09 98 1009.5
20260510045413 49 160 1.0 2.0 0.07 0.09 0.09 97 1009.6
20260510044909 49 121 1.0 1.0 0.07 0.09 0.09 97 1009.7
20260510044406 49 139 1.0 2.0 0.05 0.08 0.08 97 1009.5
20260510043903 49 150 2.0 3.0 0.12 0.08 0.08 97 1009.3
20260510043358 49 126 2.0 3.0 0.19 0.07 0.07 96 1009.8
20260510042857 50 201 1.0 1.0 0.19 0.06 0.06 95 1010.0
20260510042352 50 154 2.0 3.0 0.19 0.04 0.04 94 1010.0
20260510041849 50 201 2.0 3.0 0.12 0.03 0.03 93 1010.1
20260510041346 50 200 2.0 3.0 0.05 0.01 0.01 93 1010.2
20260510040843 50 270 2.0 2.0 0.05 0.01 0.01 93 1010.0
20260510040340 51 178 2.0 2.0 0.00 0.00 0.00 92 1009.8
20260510035835 51 285 4.0 6.0 0.07 0.33 0.33 92 1009.8
20260510035332 51 334 4.0 6.0 0.07 0.33 0.33 93 1009.7
20260510034827 51 265 1.0 2.0 0.00 0.32 0.32 94 1009.5
20260510034326 51 294 2.0 3.0 0.00 0.32 0.32 95 1009.7
20260510033821 50 291 2.0 3.0 0.00 0.32 0.32 96 1009.8
20260510033319 50 247 5.0 6.0 0.00 0.32 0.32 97 1009.6
20260510032815 50 281 1.0 1.0 0.00 0.32 0.32 95 1008.6
20260510032312 50 225 0.0 1.0 0.00 0.32 0.32 96 1008.3
20260510031807 50 164 0.0 0.0 0.00 0.32 0.32 96 1008.3
20260510031304 50 164 0.0 0.0 0.00 0.32 0.32 97 1008.3
20260510030803 50 164 1.0 1.0 0.00 0.32 0.32 97 1008.3
20260510030300 50 186 0.0 0.0 0.00 0.32 0.32 96 1008.7
20260510025757 50 187 1.0 2.0 0.00 0.32 0.32 96 1008.6
20260510025255 50 164 0.0 0.0 0.00 0.32 0.32 97 1008.3
20260510024751 50 129 0.0 0.0 0.00 0.32 0.32 97 1008.3
20260510024248 50 132 0.0 0.0 0.00 0.32 0.32 97 1008.2
20260510023744 49 148 1.0 1.0 0.00 0.32 0.32 97 1008.1
20260510023241 49 148 0.0 0.0 0.00 0.32 0.32 96 1008.1
20260510022737 50 149 0.0 1.0 0.00 0.32 0.32 96 1008.2
20260510022237 50 141 2.0 3.0 0.00 0.32 0.32 96 1007.8
20260510021732 50 140 1.0 1.0 0.00 0.32 0.32 96 1007.7
20260510021230 50 165 0.0 0.0 0.00 0.32 0.32 96 1007.9
20260510020730 50 149 0.0 1.0 0.00 0.32 0.32 97 1007.8
20260510020225 50 176 0.0 0.0 0.00 0.32 0.32 96 1007.7
20260510015721 50 132 2.0 3.0 0.00 0.32 0.32 97 1007.8
20260510015218 50 163 0.0 0.0 0.00 0.32 0.32 96 1007.9
20260510014713 50 141 1.0 1.0 0.00 0.32 0.32 96 1007.7
20260510014211 50 123 0.0 1.0 0.00 0.32 0.32 96 1007.5
20260510013712 50 190 2.0 2.0 0.00 0.32 0.32 97 1007.6
20260510013208 50 254 1.0 2.0 0.00 0.32 0.32 97 1007.6
20260510012708 50 124 0.0 0.0 0.00 0.32 0.32 97 1007.7
20260510012203 50 171 0.0 0.0 0.00 0.32 0.32 98 1007.5
20260510011658 50 135 0.0 1.0 0.00 0.32 0.32 98 1007.7
20260510011154 49 185 1.0 1.0 0.00 0.32 0.32 97 1007.5
20260510010650 49 206 2.0 3.0 0.00 0.32 0.32 97 1007.4
20260510010148 50 149 1.0 1.0 0.00 0.32 0.32 97 1007.2
20260510005643 50 147 0.0 0.0 0.00 0.32 0.32 97 1007.3
20260510005140 50 145 1.0 1.0 0.00 0.32 0.32 97 1006.9
20260510004639 50 138 0.0 0.0 0.00 0.32 0.32 97 1007.2
20260510004137 50 138 1.0 1.0 0.00 0.32 0.32 96 1007.0
20260510003633 50 135 2.0 2.0 0.00 0.32 0.32 96 1006.9
20260510003129 51 159 0.0 0.0 0.00 0.32 0.32 96 1007.0
20260510002629 51 135 0.0 0.0 0.00 0.32 0.32 96 1006.9
20260510002126 51 135 1.0 1.0 0.00 0.32 0.32 97 1007.0
20260510001623 50 128 0.0 0.0 0.00 0.32 0.32 97 1007.1
20260510001122 50 131 0.0 0.0 0.00 0.32 0.32 96 1007.0
20260510000622 50 131 1.0 1.0 0.00 0.32 0.32 96 1007.0
20260510000120 51 136 1.0 1.0 0.00 0.32 0.32 95 1007.0
20260509235615 51 152 1.0 1.0 0.00 0.32 0.32 94 1006.9
20260509235112 51 153 0.0 0.0 0.00 0.32 0.32 94 1006.8
20260509234608 51 135 0.0 0.0 0.00 0.32 0.32 94 1006.7
20260509234106 52 135 1.0 1.0 0.00 0.32 0.32 93 1006.7
20260509233603 52 170 1.0 1.0 0.00 0.32 0.32 92 1006.9
20260509233101 52 183 0.0 0.0 0.00 0.32 0.32 92 1006.7
20260509232557 53 137 1.0 1.0 0.00 0.32 0.32 92 1006.5
20260509232054 53 140 0.0 0.0 0.00 0.32 0.32 91 1006.8
20260509231550 54 188 2.0 2.0 0.00 0.32 0.32 90 1006.3
20260509231048 54 134 1.0 2.0 0.00 0.32 0.32 91 1006.5
20260509230544 53 128 2.0 2.0 0.00 0.32 0.32 91 1006.3
20260509230042 53 195 2.0 2.0 0.00 0.32 0.32 91 1006.8
20260509225537 53 170 0.0 0.0 0.00 0.32 0.32 91 1006.7
20260509225033 53 197 1.0 1.0 0.00 0.32 0.32 91 1006.8
20260509224529 53 190 1.0 1.0 0.00 0.32 0.32 91 1006.8
20260509224026 53 203 1.0 1.0 0.00 0.32 0.32 91 1006.7
20260509223522 53 155 2.0 2.0 0.00 0.32 0.32 91 1006.9
20260509223021 53 187 1.0 2.0 0.00 0.32 0.32 91 1006.9
20260509222516 54 205 1.0 1.0 0.00 0.32 0.32 90 1006.9
20260509222012 54 179 2.0 2.0 0.00 0.32 0.32 90 1006.7
20260509221508 54 145 2.0 3.0 0.00 0.32 0.32 92 1006.9
20260509221004 53 145 0.0 1.0 0.00 0.32 0.32 92 1006.9
20260509220500 53 189 0.0 0.0 0.00 0.32 0.32 92 1006.8
20260509215956 53 142 3.0 3.0 0.00 0.32 0.32 91 1006.8
20260509215452 53 238 2.0 2.0 0.00 0.32 0.32 92 1006.7
20260509214950 53 136 2.0 2.0 0.00 0.32 0.32 92 1006.5
20260509214447 53 138 2.0 2.0 0.00 0.32 0.32 92 1006.8
20260509213943 53 181 1.0 1.0 0.00 0.32 0.32 93 1006.8
20260509213439 53 153 2.0 4.0 0.00 0.32 0.32 92 1006.9
20260509212937 53 182 1.0 1.0 0.00 0.32 0.32 92 1006.9
20260509212434 53 201 1.0 1.0 0.00 0.32 0.32 93 1007.1
20260509211930 53 203 0.0 1.0 0.00 0.32 0.32 93 1007.0
20260509211426 53 163 1.0 2.0 0.00 0.32 0.32 93 1007.0
20260509210922 53 266 5.0 8.0 0.00 0.32 0.32 93 1006.9
20260509210420 53 129 2.0 4.0 0.00 0.32 0.32 93 1006.9
20260509205915 53 135 2.0 3.0 0.00 0.32 0.32 93 1007.2
20260509205415 53 141 2.0 2.0 0.00 0.32 0.32 94 1007.3
20260509204911 52 236 2.0 3.0 0.00 0.32 0.32 94 1007.3
20260509204408 53 209 0.0 1.0 0.00 0.32 0.32 93 1007.3
20260509203904 52 261 4.0 6.0 0.00 0.32 0.32 94 1007.1
20260509203400 52 183 1.0 2.0 0.00 0.32 0.32 94 1007.5
20260509202858 52 143 0.0 0.0 0.00 0.32 0.32 94 1007.4
20260509202353 52 195 3.0 4.0 0.00 0.32 0.32 94 1007.7
20260509201849 52 169 2.0 2.0 0.00 0.32 0.32 93 1007.5
20260509201344 52 155 4.0 6.0 0.00 0.32 0.32 93 1007.5
20260509200841 52 187 0.0 0.0 0.00 0.32 0.32 94 1007.5
20260509200336 52 160 2.0 3.0 0.00 0.32 0.32 94 1007.8
20260509195833 52 149 1.0 1.0 0.00 0.32 0.32 94 1007.8
20260509195333 51 176 3.0 3.0 0.00 0.32 0.32 94 1007.7
20260509194833 51 167 1.0 2.0 0.00 0.32 0.32 94 1007.9
20260509194329 51 173 1.0 1.0 0.00 0.32 0.32 94 1007.9
20260509193827 51 174 2.0 4.0 0.00 0.32 0.32 94 1007.9
20260509193326 51 124 1.0 2.0 0.00 0.32 0.32 94 1008.1
20260509192823 51 110 2.0 2.0 0.00 0.32 0.32 94 1008.1
20260509192319 51 138 1.0 1.0 0.00 0.32 0.32 94 1008.0
20260509191814 51 107 0.0 1.0 0.00 0.32 0.32 95 1008.0
20260509191310 51 168 1.0 2.0 0.00 0.32 0.32 95 1008.1
20260509190806 51 223 2.0 2.0 0.00 0.32 0.32 95 1008.1
20260509190304 51 147 0.0 0.0 0.00 0.32 0.32 95 1008.2
20260509185801 51 154 1.0 1.0 0.00 0.32 0.32 95 1008.2
20260509185257 51 186 1.0 1.0 0.00 0.32 0.32 95 1008.1
20260509184754 51 131 1.0 1.0 0.00 0.32 0.32 95 1008.2
20260509184252 51 160 1.0 1.0 0.00 0.32 0.32 94 1008.2
20260509183748 51 176 1.0 1.0 0.00 0.32 0.32 94 1008.3
20260509183244 51 169 0.0 1.0 0.00 0.32 0.32 94 1008.3
20260509182739 51 179 2.0 3.0 0.00 0.32 0.32 94 1008.1
20260509182237 51 184 1.0 1.0 0.00 0.32 0.32 95 1008.1
20260509181734 51 149 0.0 1.0 0.00 0.32 0.32 94 1008.2
20260509181232 51 160 2.0 3.0 0.00 0.32 0.32 95 1008.1
20260509180729 51 164 1.0 2.0 0.00 0.32 0.32 95 1008.3
20260509180225 51 166 1.0 1.0 0.00 0.32 0.32 95 1008.1
20260509175721 51 165 0.0 1.0 0.00 0.32 0.32 95 1008.1
20260509175218 51 131 0.0 1.0 0.00 0.32 0.32 95 1008.3
20260509174714 51 127 2.0 3.0 0.00 0.32 0.32 95 1008.1
20260509174209 51 143 0.0 1.0 0.00 0.32 0.32 95 1008.0
20260509173705 50 135 1.0 2.0 0.00 0.32 0.32 96 1008.1
20260509173201 50 233 1.0 2.0 0.00 0.32 0.32 96 1008.1
20260509172657 50 151 1.0 1.0 0.00 0.32 0.32 96 1008.2
20260509172154 50 139 1.0 2.0 0.00 0.32 0.32 96 1008.2
20260509171649 50 151 1.0 1.0 0.00 0.32 0.32 96 1008.1
20260509171146 50 171 0.0 1.0 0.00 0.32 0.32 96 1008.0
20260509170643 50 183 1.0 2.0 0.00 0.32 0.32 96 1008.0
20260509170138 50 142 0.0 1.0 0.00 0.32 0.32 96 1008.0
20260509165637 50 163 1.0 2.0 0.00 0.32 0.32 96 1008.0
20260509165133 50 195 2.0 2.0 0.00 0.32 0.32 96 1008.1
20260509164629 50 156 2.0 2.0 0.00 0.32 0.32 96 1008.3
20260509164125 50 185 3.0 3.0 0.00 0.32 0.32 96 1008.1
20260509163623 50 238 4.0 6.0 0.00 0.32 0.32 96 1008.4
20260509163118 50 148 2.0 2.0 0.00 0.32 0.32 96 1008.4
20260509162616 50 162 1.0 1.0 0.00 0.32 0.32 96 1008.4
20260509162111 50 258 2.0 3.0 0.00 0.32 0.32 96 1008.3
20260509161608 50 142 1.0 2.0 0.05 0.32 0.32 96 1008.4
20260509161108 50 146 1.0 2.0 0.05 0.32 0.32 96 1008.3
20260509160604 50 157 1.0 2.0 0.07 0.31 0.31 96 1008.6
20260509160059 50 179 1.0 2.0 0.07 0.31 0.31 95 1008.5
20260509155556 50 176 3.0 6.0 0.07 0.31 0.31 94 1008.7
20260509155053 50 233 3.0 4.0 0.00 0.30 0.30 94 1008.5
20260509154548 50 173 1.0 2.0 0.05 0.30 0.30 95 1008.5
20260509154046 50 201 3.0 3.0 0.05 0.30 0.30 94 1008.6
20260509153543 50 148 1.0 1.0 0.00 0.29 0.29 95 1008.8
20260509153040 50 138 0.0 0.0 0.00 0.29 0.29 95 1008.7
20260509152536 50 137 1.0 1.0 0.00 0.29 0.29 95 1008.5
20260509152033 50 147 3.0 4.0 0.00 0.29 0.29 95 1008.7
20260509151529 50 76 4.0 7.0 0.00 0.29 0.29 95 1008.7
20260509151027 50 187 4.0 4.0 0.00 0.29 0.29 95 1008.8
20260509150524 50 195 1.0 1.0 0.07 0.29 0.29 96 1008.7
20260509150023 50 204 3.0 4.0 0.07 0.29 0.29 96 1008.8
20260509145518 50 264 2.0 3.0 0.00 0.28 0.28 96 1008.8
20260509145013 50 165 1.0 2.0 0.00 0.28 0.28 96 1008.8
20260509144510 50 172 2.0 2.0 0.05 0.28 0.28 97 1008.9
20260509144008 49 141 0.0 0.0 0.05 0.28 0.28 97 1009.1
20260509143505 49 148 1.0 2.0 0.00 0.27 0.27 97 1009.1
20260509143002 49 163 1.0 1.0 0.00 0.27 0.27 97 1009.3
20260509142458 49 170 2.0 2.0 0.07 0.27 0.27 98 1009.4
20260509141953 49 126 4.0 6.0 0.07 0.27 0.27 97 1009.3
20260509141449 48 128 1.0 1.0 0.05 0.26 0.26 98 1009.1
20260509140947 48 138 1.0 1.0 0.05 0.26 0.26 98 1009.4
20260509140443 48 155 0.0 0.0 0.07 0.25 0.25 98 1009.4
20260509135942 48 202 1.0 2.0 0.07 0.25 0.25 98 1009.4
20260509135439 48 177 1.0 1.0 0.07 0.25 0.25 98 1009.3
20260509134936 48 177 0.0 0.0 0.00 0.24 0.24 98 1009.1
20260509134433 48 207 2.0 2.0 0.07 0.24 0.24 98 1009.4
20260509133931 48 151 0.0 0.0 0.07 0.24 0.24 98 1009.4
20260509133426 48 153 0.0 0.0 0.05 0.23 0.23 98 1009.4
20260509132925 48 151 0.0 0.0 0.05 0.23 0.23 98 1009.6
20260509132423 48 188 1.0 1.0 0.07 0.22 0.22 98 1009.4
20260509131920 48 151 3.0 3.0 0.07 0.22 0.22 98 1009.5
20260509131417 48 168 2.0 2.0 0.05 0.21 0.21 98 1009.4
20260509130914 48 182 2.0 2.0 0.05 0.21 0.21 98 1009.6
20260509130409 48 139 1.0 1.0 0.00 0.20 0.20 98 1009.3
20260509125906 48 165 1.0 1.0 0.07 0.20 0.20 98 1009.5
20260509125403 47 151 1.0 1.0 0.07 0.20 0.20 98 1009.5
20260509124859 47 150 1.0 2.0 0.12 0.19 0.19 98 1009.7
20260509124356 47 197 0.0 0.0 0.12 0.19 0.19 98 1009.7
20260509123854 47 170 1.0 1.0 0.12 0.18 0.18 98 1009.6
20260509123351 47 133 0.0 0.0 0.05 0.17 0.17 99 1009.5
20260509122846 47 152 2.0 3.0 0.07 0.16 0.16 99 1009.7
20260509122343 47 177 0.0 1.0 0.12 0.16 0.16 99 1010.0
20260509121840 47 105 0.0 0.0 0.05 0.15 0.15 99 1009.5
20260509121337 46 64 1.0 2.0 0.00 0.14 0.14 99 1009.7
20260509120836 46 119 1.0 1.0 0.07 0.14 0.14 99 1009.7
20260509120333 46 103 0.0 0.0 0.07 0.14 0.14 99 1009.7
20260509115831 46 250 2.0 2.0 0.05 0.13 0.13 99 1009.9
20260509115328 46 169 0.0 0.0 0.12 0.13 0.13 99 1009.7
20260509114826 46 152 1.0 2.0 0.14 0.12 0.12 99 1009.8
20260509114324 46 162 1.0 1.0 0.12 0.11 0.11 99 1009.8
20260509113823 45 160 0.0 0.0 0.12 0.10 0.10 99 1009.8
20260509113319 45 152 0.0 0.0 0.12 0.09 0.09 99 1010.0
20260509112816 44 153 0.0 0.0 0.12 0.08 0.08 99 1009.8
20260509112314 44 152 0.0 0.0 0.12 0.07 0.07 99 1009.9
20260509111810 44 153 0.0 1.0 0.05 0.06 0.06 99 1009.7
20260509111307 44 152 0.0 0.0 0.12 0.05 0.05 98 1009.8
20260509110805 44 153 0.0 0.0 0.19 0.05 0.05 98 1009.6
20260509110301 45 148 0.0 0.0 0.12 0.04 0.04 98 1009.6
20260509105759 45 148 1.0 2.0 0.05 0.02 0.02 99 1009.4
20260509105257 45 130 0.0 1.0 0.05 0.02 0.02 99 1009.7
20260509104753 44 156 0.0 1.0 0.00 0.01 0.01 99 1009.6
20260509104250 44 176 0.0 0.0 0.00 0.01 0.01 98 1009.8
20260509103749 44 155 0.0 0.0 0.00 0.01 0.01 99 1009.5
20260509103245 44 118 1.0 1.0 0.00 0.01 0.01 99 1009.7
20260509102744 42 117 2.0 2.0 0.00 0.01 0.01 99 1009.6
20260509102240 41 128 0.0 0.0 0.00 0.01 0.01 98 1009.7
20260509101737 41 144 0.0 0.0 0.00 0.01 0.01 98 1009.7
20260509101233 41 85 0.0 0.0 0.00 0.01 0.01 98 1009.8
20260509100731 41 85 0.0 0.0 0.00 0.01 0.01 98 1009.6
20260509100228 41 85 0.0 0.0 0.00 0.01 0.01 98 1009.1
20260509095724 41 85 0.0 0.0 0.00 0.01 0.01 98 1009.4
20260509095222 40 85 0.0 0.0 0.00 0.01 0.01 98 1009.6
20260509094718 40 85 0.0 0.0 0.00 0.01 0.01 97 1009.6
20260509094215 40 85 0.0 0.0 0.00 0.01 0.01 97 1009.5
20260509093714 40 85 0.0 0.0 0.07 0.01 0.01 97 1009.5
20260509093210 40 85 0.0 0.0 0.07 0.01 0.01 97 1009.6
20260509092708 40 85 0.0 0.0 0.07 0.01 0.01 97 1009.4
20260509092206 40 85 0.0 0.0 0.00 0.00 0.00 97 1009.7
20260509091704 40 85 0.0 0.0 0.00 0.00 0.00 97 1009.6
20260509091200 40 85 0.0 0.0 0.00 0.00 0.00 97 1009.5
20260509090658 40 85 0.0 0.0 0.00 0.00 0.00 97 1009.6
20260509090155 40 85 0.0 0.0 0.00 0.00 0.00 97 1009.8
20260509085652 40 85 0.0 0.0 0.00 0.00 0.00 96 1009.6
20260509085148 40 85 0.0 0.0 0.00 0.00 0.00 96 1009.7
20260509084646 40 85 0.0 0.0 0.00 0.00 0.00 96 1009.9
20260509084143 40 85 0.0 0.0 0.00 0.00 0.00 96 1009.6
20260509083641 40 85 1.0 1.0 0.00 0.00 0.00 96 1009.7
20260509083136 40 85 0.0 0.0 0.00 0.00 0.00 96 1009.7
20260509082634 40 85 0.0 0.0 0.00 0.00 0.00 96 1009.6
20260509082130 40 85 0.0 0.0 0.00 0.00 0.00 96 1010.1
20260509081628 40 85 0.0 0.0 0.00 0.00 0.00 96 1010.0
20260509081125 40 85 0.0 0.0 0.00 0.00 0.00 95 1010.3
20260509080623 40 84 1.0 1.0 0.00 0.00 0.00 95 1009.9
20260509080120 40 85 0.0 0.0 0.00 0.00 0.00 95 1010.2
20260509075618 40 85 0.0 0.0 0.00 0.00 0.00 94 1010.2
20260509075116 41 85 0.0 0.0 0.00 0.00 0.00 94 1010.0
20260509074612 41 85 0.0 0.0 0.00 0.00 0.00 93 1010.0
20260509074109 40 85 0.0 0.0 0.00 0.00 0.00 93 1010.1
20260509073606 40 85 0.0 0.0 0.00 0.00 0.00 93 1010.0
20260509073102 40 85 0.0 0.0 0.00 0.00 0.00 94 1010.2
20260509072559 40 85 0.0 0.0 0.00 0.00 0.00 94 1010.1
20260509072055 40 85 0.0 0.0 0.00 0.00 0.00 93 1010.0
20260509071552 40 85 0.0 0.0 0.00 0.00 0.00 94 1010.0
20260509071049 40 85 0.0 0.0 0.00 0.00 0.00 94 1010.1
20260509070547 40 85 0.0 0.0 0.00 0.00 0.00 94 1010.1
20260509070043 40 85 0.0 0.0 0.00 0.00 0.00 94 1010.3
20260509065538 40 85 0.0 0.0 0.00 0.00 0.00 93 1010.0